Time,TemperatureF,DewpointF,PressureIn,WindDirection,WindDirectionDegrees,WindSpeedMPH,WindSpeedGustMPH,Humidity,HourlyPrecipIn,Conditions,Clouds,dailyrainin,SoftwareType,DateUTC
2013-02-18 00:00:00,13.6,5.0,30.33,SSE,167,0.0,6.0,68,0.00,,---,0.00,VWS V14.01,2013-02-18 05:00:00,
2013-02-18 00:05:00,13.5,4.9,30.33,SSW,200,1.0,3.0,68,0.00,,---,0.00,VWS V14.01,2013-02-18 05:05:00,
2013-02-18 00:10:00,13.3,5.1,30.33,West,269,0.0,3.0,69,0.00,,---,0.00,VWS V14.01,2013-02-18 05:10:00,
2013-02-18 00:15:00,13.2,4.9,30.33,WNW,285,0.0,3.0,69,0.00,,---,0.00,VWS V14.01,2013-02-18 05:15:00,
2013-02-18 00:20:00,13.0,4.8,30.34,WNW,302,1.0,3.0,69,0.00,,---,0.00,VWS V14.01,2013-02-18 05:20:00,
2013-02-18 00:25:00,13.2,4.9,30.34,SW,225,0.0,4.0,69,0.00,,---,0.00,VWS V14.01,2013-02-18 05:25:00,
2013-02-18 00:30:00,13.2,4.6,30.34,WSW,242,0.0,0.0,68,0.00,,---,0.00,VWS V14.01,2013-02-18 05:30:00,
2013-02-18 00:35:00,13.4,4.8,30.34,WNW,295,0.0,5.0,68,0.00,,---,0.00,VWS V14.01,2013-02-18 05:35:00,
2013-02-18 00:40:00,13.6,5.0,30.34,WSW,239,0.0,5.0,68,0.00,,---,0.00,VWS V14.01,2013-02-18 05:40:00,
2013-02-18 00:45:00,13.4,4.5,30.34,WSW,238,1.0,5.0,67,0.00,,---,0.00,VWS V14.01,2013-02-18 05:45:00,
2013-02-18 00:50:00,13.4,4.5,30.34,SSW,212,0.0,5.0,67,0.00,,---,0.00,VWS V14.01,2013-02-18 05:50:00,
2013-02-18 00:55:00,13.4,4.5,30.34,SSW,193,0.0,5.0,67,0.00,,---,0.00,VWS V14.01,2013-02-18 05:55:00,
2013-02-18 01:00:00,13.3,4.7,30.34,SW,220,0.0,0.0,68,0.00,,---,0.00,VWS V14.01,2013-02-18 06:00:00,
2013-02-18 01:05:00,13.0,4.4,30.35,SW,221,0.0,1.0,68,0.00,,---,0.00,VWS V14.01,2013-02-18 06:05:00,
2013-02-18 01:10:00,12.9,4.3,30.35,West,274,0.0,2.0,68,0.00,,---,0.00,VWS V14.01,2013-02-18 06:10:00,
2013-02-18 01:15:00,12.6,4.4,30.35,WNW,285,0.0,2.0,69,0.00,,---,0.00,VWS V14.01,2013-02-18 06:15:00,
2013-02-18 01:20:00,12.5,4.3,30.35,WNW,284,1.0,2.0,69,0.00,,---,0.00,VWS V14.01,2013-02-18 06:20:00,
2013-02-18 01:25:00,12.6,4.4,30.35,WSW,242,0.0,2.0,69,0.00,,---,0.00,VWS V14.01,2013-02-18 06:25:00,
2013-02-18 01:30:00,12.5,4.3,30.35,WSW,257,1.0,2.0,69,0.00,,---,0.00,VWS V14.01,2013-02-18 06:30:00,
2013-02-18 01:35:00,12.8,4.6,30.35,WSW,256,0.0,2.0,69,0.00,,---,0.00,VWS V14.01,2013-02-18 06:35:00,
2013-02-18 01:40:00,12.7,4.5,30.35,WSW,244,0.0,2.0,69,0.00,,---,0.00,VWS V14.01,2013-02-18 06:40:00,
2013-02-18 01:45:00,13.0,4.8,30.35,WSW,246,0.0,2.0,69,0.00,,---,0.00,VWS V14.01,2013-02-18 06:45:00,
2013-02-18 01:51:00,13.4,4.8,30.36,WSW,242,0.0,2.0,68,0.00,,---,0.00,VWS V14.01,2013-02-18 06:51:00,
2013-02-18 01:56:00,13.4,4.5,30.35,West,267,0.0,2.0,67,0.00,,---,0.00,VWS V14.01,2013-02-18 06:56:00,
2013-02-18 02:01:00,13.4,4.5,30.35,WSW,248,1.0,1.0,67,0.00,,---,0.00,VWS V14.01,2013-02-18 07:01:00,
2013-02-18 02:06:00,13.5,4.6,30.35,WSW,242,0.0,2.0,67,0.00,,---,0.00,VWS V14.01,2013-02-18 07:06:00,
2013-02-18 02:11:00,13.6,4.7,30.36,WSW,241,0.0,2.0,67,0.00,,---,0.00,VWS V14.01,2013-02-18 07:11:00,
2013-02-18 02:16:00,13.3,4.4,30.35,WSW,242,0.0,2.0,67,0.00,,---,0.00,VWS V14.01,2013-02-18 07:16:00,
2013-02-18 02:21:00,13.4,4.5,30.36,WSW,244,0.0,2.0,67,0.00,,---,0.00,VWS V14.01,2013-02-18 07:21:00,
2013-02-18 02:26:00,13.6,4.4,30.36,WSW,244,0.0,3.0,66,0.00,,---,0.00,VWS V14.01,2013-02-18 07:26:00,
2013-02-18 02:31:00,13.8,4.6,30.36,SSW,205,0.0,1.0,66,0.00,,---,0.00,VWS V14.01,2013-02-18 07:31:00,
2013-02-18 02:36:00,13.3,4.1,30.36,SSW,203,0.0,1.0,66,0.00,,---,0.00,VWS V14.01,2013-02-18 07:36:00,
2013-02-18 02:41:00,13.0,4.1,30.36,South,172,0.0,2.0,67,0.00,,---,0.00,VWS V14.01,2013-02-18 07:41:00,
2013-02-18 02:46:00,12.5,4.0,30.36,South,171,0.0,2.0,68,0.00,,---,0.00,VWS V14.01,2013-02-18 07:46:00,
2013-02-18 02:51:00,11.9,3.7,30.36,South,172,0.0,2.0,69,0.00,,---,0.00,VWS V14.01,2013-02-18 07:51:00,
2013-02-18 02:56:00,11.9,4.0,30.36,South,179,0.0,2.0,70,0.00,,---,0.00,VWS V14.01,2013-02-18 07:56:00,
2013-02-18 03:01:00,11.9,3.7,30.36,South,179,0.0,0.0,69,0.00,,---,0.00,VWS V14.01,2013-02-18 08:01:00,
2013-02-18 03:06:00,11.3,3.4,30.36,SSE,165,0.0,1.0,70,0.00,,---,0.00,VWS V14.01,2013-02-18 08:06:00,
2013-02-18 03:11:00,11.7,4.1,30.37,SSE,167,0.0,1.0,71,0.00,,---,0.00,VWS V14.01,2013-02-18 08:11:00,
2013-02-18 03:16:00,12.2,4.3,30.37,SSW,200,0.0,1.0,70,0.00,,---,0.00,VWS V14.01,2013-02-18 08:16:00,
2013-02-18 03:21:00,12.4,4.2,30.37,South,191,0.0,1.0,69,0.00,,---,0.00,VWS V14.01,2013-02-18 08:21:00,
2013-02-18 03:26:00,11.9,3.7,30.36,South,191,0.0,1.0,69,0.00,,---,0.00,VWS V14.01,2013-02-18 08:26:00,
2013-02-18 03:31:00,12.2,4.3,30.37,SSW,204,0.0,0.0,70,0.00,,---,0.00,VWS V14.01,2013-02-18 08:31:00,
2013-02-18 03:36:00,12.1,3.9,30.37,SSW,203,0.0,0.0,69,0.00,,---,0.00,VWS V14.01,2013-02-18 08:36:00,
2013-02-18 03:41:00,11.2,3.3,30.37,SE,132,0.0,1.0,70,0.00,,---,0.00,VWS V14.01,2013-02-18 08:41:00,
2013-02-18 03:46:00,10.7,3.5,30.37,SE,132,1.0,1.0,72,0.00,,---,0.00,VWS V14.01,2013-02-18 08:46:00,
2013-02-18 03:51:00,10.1,3.5,30.37,SE,132,0.0,1.0,74,0.00,,---,0.00,VWS V14.01,2013-02-18 08:51:00,
2013-02-18 03:56:00,10.1,4.3,30.37,SE,138,0.0,1.0,77,0.00,,---,0.00,VWS V14.01,2013-02-18 08:56:00,
2013-02-18 04:01:00,10.2,5.0,30.38,SE,139,0.0,0.0,79,0.00,,---,0.00,VWS V14.01,2013-02-18 09:01:00,
2013-02-18 04:06:00,10.3,5.1,30.38,SE,138,0.0,0.0,79,0.00,,---,0.00,VWS V14.01,2013-02-18 09:06:00,
2013-02-18 04:11:00,10.3,5.1,30.38,SE,138,0.0,1.0,79,0.00,,---,0.00,VWS V14.01,2013-02-18 09:11:00,
2013-02-18 04:16:00,10.2,4.7,30.38,SE,138,0.0,1.0,78,0.00,,---,0.00,VWS V14.01,2013-02-18 09:16:00,
2013-02-18 04:21:00,10.0,4.5,30.39,SE,138,0.0,1.0,78,0.00,,---,0.00,VWS V14.01,2013-02-18 09:21:00,
2013-02-18 04:26:00,10.1,4.6,30.39,SSE,160,0.0,1.0,78,0.00,,---,0.00,VWS V14.01,2013-02-18 09:26:00,
2013-02-18 04:31:00,10.1,4.3,30.39,SSE,160,0.0,0.0,77,0.00,,---,0.00,VWS V14.01,2013-02-18 09:31:00,
2013-02-18 04:36:00,10.3,4.8,30.39,South,187,0.0,1.0,78,0.00,,---,0.00,VWS V14.01,2013-02-18 09:36:00,
2013-02-18 04:41:00,11.2,5.4,30.40,SSW,208,1.0,1.0,77,0.00,,---,0.00,VWS V14.01,2013-02-18 09:41:00,
2013-02-18 04:46:00,12.9,6.2,30.40,SW,219,0.0,1.0,74,0.00,,---,0.00,VWS V14.01,2013-02-18 09:46:00,
2013-02-18 04:51:00,13.8,6.2,30.40,SSW,200,0.0,1.0,71,0.00,,---,0.00,VWS V14.01,2013-02-18 09:51:00,
2013-02-18 04:56:00,13.1,5.2,30.40,SE,132,1.0,1.0,70,0.00,,---,0.00,VWS V14.01,2013-02-18 09:56:00,
2013-02-18 05:01:00,11.7,4.1,30.40,SE,134,0.0,0.0,71,0.00,,---,0.00,VWS V14.01,2013-02-18 10:01:00,
2013-02-18 05:06:00,11.0,4.1,30.40,SE,134,0.0,1.0,73,0.00,,---,0.00,VWS V14.01,2013-02-18 10:06:00,
2013-02-18 05:11:00,10.9,4.6,30.40,SE,134,1.0,1.0,75,0.00,,---,0.00,VWS V14.01,2013-02-18 10:11:00,
2013-02-18 05:16:00,11.5,5.4,30.41,SE,146,0.0,1.0,76,0.00,,---,0.00,VWS V14.01,2013-02-18 10:16:00,
2013-02-18 05:21:00,11.7,5.6,30.41,SE,145,0.0,1.0,76,0.00,,---,0.00,VWS V14.01,2013-02-18 10:21:00,
2013-02-18 05:26:00,11.4,5.6,30.41,SE,145,0.0,1.0,77,0.00,,---,0.00,VWS V14.01,2013-02-18 10:26:00,
2013-02-18 05:31:00,11.1,5.3,30.41,SSE,148,0.0,0.0,77,0.00,,---,0.00,VWS V14.01,2013-02-18 10:31:00,
2013-02-18 05:36:00,11.0,5.8,30.41,SE,146,0.0,0.0,79,0.00,,---,0.00,VWS V14.01,2013-02-18 10:36:00,
2013-02-18 05:41:00,11.2,6.0,30.41,SSE,147,0.0,0.0,79,0.00,,---,0.00,VWS V14.01,2013-02-18 10:41:00,
2013-02-18 05:46:00,11.5,6.3,30.41,SSE,148,0.0,0.0,79,0.00,,---,0.00,VWS V14.01,2013-02-18 10:46:00,
2013-02-18 05:52:00,11.7,6.7,30.41,SSE,148,0.0,0.0,80,0.00,,---,0.00,VWS V14.01,2013-02-18 10:52:00,
2013-02-18 05:57:00,11.9,6.9,30.41,SSE,148,0.0,0.0,80,0.00,,---,0.00,VWS V14.01,2013-02-18 10:57:00,
2013-02-18 06:02:00,12.5,7.2,30.41,SSE,148,0.0,0.0,79,0.00,,---,0.00,VWS V14.01,2013-02-18 11:02:00,
2013-02-18 06:07:00,13.4,7.3,30.42,SSW,201,0.0,1.0,76,0.00,,---,0.00,VWS V14.01,2013-02-18 11:07:00,
2013-02-18 06:12:00,14.9,8.1,30.41,SSW,207,0.0,2.0,74,0.00,,---,0.00,VWS V14.01,2013-02-18 11:12:00,
2013-02-18 06:17:00,15.4,8.0,30.41,South,186,0.0,2.0,72,0.00,,---,0.00,VWS V14.01,2013-02-18 11:17:00,
2013-02-18 06:22:00,14.6,7.2,30.41,SE,146,0.0,2.0,72,0.00,,---,0.00,VWS V14.01,2013-02-18 11:22:00,
2013-02-18 06:27:00,13.7,7.3,30.41,SE,141,0.0,2.0,75,0.00,,---,0.00,VWS V14.01,2013-02-18 11:27:00,
2013-02-18 06:32:00,13.3,6.9,30.41,SE,141,0.0,0.0,75,0.00,,---,0.00,VWS V14.01,2013-02-18 11:32:00,
2013-02-18 06:37:00,13.2,7.3,30.41,SE,141,0.0,0.0,77,0.00,,---,0.00,VWS V14.01,2013-02-18 11:37:00,
2013-02-18 06:42:00,13.7,8.1,30.41,SE,141,0.0,1.0,78,0.00,,---,0.00,VWS V14.01,2013-02-18 11:42:00,
2013-02-18 06:47:00,13.7,7.8,30.41,SE,141,0.0,1.0,77,0.00,,---,0.00,VWS V14.01,2013-02-18 11:47:00,
2013-02-18 06:52:00,13.7,7.8,30.41,SE,141,0.0,1.0,77,0.00,,---,0.00,VWS V14.01,2013-02-18 11:52:00,
2013-02-18 06:57:00,13.6,7.7,30.41,SE,141,0.0,1.0,77,0.00,,---,0.00,VWS V14.01,2013-02-18 11:57:00,
2013-02-18 07:02:00,13.6,7.7,30.42,SE,141,0.0,0.0,77,0.00,,---,0.00,VWS V14.01,2013-02-18 12:02:00,
2013-02-18 07:07:00,13.9,8.0,30.42,SE,141,0.0,0.0,77,0.00,,---,0.00,VWS V14.01,2013-02-18 12:07:00,
2013-02-18 07:12:00,14.2,8.3,30.42,SE,141,0.0,0.0,77,0.00,,---,0.00,VWS V14.01,2013-02-18 12:12:00,
2013-02-18 07:17:00,14.6,8.7,30.42,SE,146,0.0,1.0,77,0.00,,---,0.00,VWS V14.01,2013-02-18 12:17:00,
2013-02-18 07:22:00,14.5,8.6,30.42,SSE,147,0.0,1.0,77,0.00,,---,0.00,VWS V14.01,2013-02-18 12:22:00,
2013-02-18 07:28:00,14.5,8.9,30.42,SSE,147,0.0,1.0,78,0.00,,---,0.00,VWS V14.01,2013-02-18 12:28:00,
2013-02-18 07:33:00,14.6,9.3,30.42,SSE,147,0.0,0.0,79,0.00,,---,0.00,VWS V14.01,2013-02-18 12:33:00,
2013-02-18 07:38:00,14.8,9.8,30.42,SSE,147,0.0,0.0,80,0.00,,---,0.00,VWS V14.01,2013-02-18 12:38:00,
2013-02-18 07:43:00,15.0,10.0,30.42,SSE,147,0.0,0.0,80,0.00,,---,0.00,VWS V14.01,2013-02-18 12:43:00,
2013-02-18 07:48:00,15.2,10.4,30.43,SSE,147,0.0,0.0,81,0.00,,---,0.00,VWS V14.01,2013-02-18 12:48:00,
2013-02-18 07:53:00,15.7,10.6,30.43,SSE,147,0.0,0.0,80,0.00,,---,0.00,VWS V14.01,2013-02-18 12:53:00,
2013-02-18 07:58:00,16.6,10.9,30.43,SSE,147,0.0,0.0,78,0.00,,---,0.00,VWS V14.01,2013-02-18 12:58:00,
2013-02-18 08:03:00,18.2,11.9,30.43,SE,145,0.0,0.0,76,0.00,,---,0.00,VWS V14.01,2013-02-18 13:03:00,
2013-02-18 08:08:00,20.0,12.4,30.43,SE,145,0.0,0.0,72,0.00,,---,0.00,VWS V14.01,2013-02-18 13:08:00,
2013-02-18 08:13:00,21.3,12.7,30.43,SE,145,0.0,0.0,69,0.00,,---,0.00,VWS V14.01,2013-02-18 13:13:00,
2013-02-18 08:18:00,22.5,12.9,30.43,SE,145,0.0,0.0,66,0.00,,---,0.00,VWS V14.01,2013-02-18 13:18:00,
2013-02-18 08:23:00,23.1,12.8,30.43,SE,145,0.0,1.0,64,0.00,,---,0.00,VWS V14.01,2013-02-18 13:23:00,
2013-02-18 08:28:00,23.2,12.5,30.43,ESE,108,1.0,1.0,63,0.00,,---,0.00,VWS V14.01,2013-02-18 13:28:00,
2013-02-18 08:33:00,24.3,13.5,30.43,ESE,109,0.0,1.0,63,0.00,,---,0.00,VWS V14.01,2013-02-18 13:33:00,
2013-02-18 08:38:00,26.3,15.1,30.43,ESE,108,0.0,1.0,62,0.00,,---,0.00,VWS V14.01,2013-02-18 13:38:00,
2013-02-18 08:43:00,28.3,15.0,30.43,ESE,108,0.0,1.0,57,0.00,,---,0.00,VWS V14.01,2013-02-18 13:43:00,
2013-02-18 08:48:00,29.4,14.8,30.43,ESE,108,1.0,1.0,54,0.00,,---,0.00,VWS V14.01,2013-02-18 13:48:00,
2013-02-18 08:53:00,29.1,14.5,30.43,ESE,106,1.0,2.0,54,0.00,,---,0.00,VWS V14.01,2013-02-18 13:53:00,
2013-02-18 08:58:00,29.2,15.5,30.43,ESE,106,0.0,2.0,56,0.00,,---,0.00,VWS V14.01,2013-02-18 13:58:00,
2013-02-18 09:03:00,30.6,15.9,30.43,ESE,119,2.0,2.0,54,0.00,,---,0.00,VWS V14.01,2013-02-18 14:03:00,
2013-02-18 09:08:00,30.3,14.8,30.42,ESE,110,1.0,4.0,52,0.00,,---,0.00,VWS V14.01,2013-02-18 14:08:00,
2013-02-18 09:13:00,30.3,15.2,30.42,ESE,113,1.0,4.0,53,0.00,,---,0.00,VWS V14.01,2013-02-18 14:13:00,
2013-02-18 09:19:00,30.6,15.5,30.42,ESE,106,2.0,4.0,53,0.00,,---,0.00,VWS V14.01,2013-02-18 14:19:00,
2013-02-18 09:24:00,31.4,16.3,30.42,ESE,113,2.0,4.0,53,0.00,,---,0.00,VWS V14.01,2013-02-18 14:24:00,
2013-02-18 09:29:00,32.2,16.6,30.42,ESE,109,2.0,4.0,52,0.00,,---,0.00,VWS V14.01,2013-02-18 14:29:00,
2013-02-18 09:34:00,32.8,17.6,30.42,SE,139,2.0,4.0,53,0.00,,---,0.00,VWS V14.01,2013-02-18 14:34:00,
2013-02-18 09:39:00,33.4,17.7,30.42,SE,133,3.0,6.0,52,0.00,,---,0.00,VWS V14.01,2013-02-18 14:39:00,
2013-02-18 09:44:00,34.1,18.3,30.42,SSE,161,1.0,6.0,52,0.00,,---,0.00,VWS V14.01,2013-02-18 14:44:00,
2013-02-18 09:49:00,35.2,18.9,30.42,SSE,165,1.0,6.0,51,0.00,,---,0.00,VWS V14.01,2013-02-18 14:49:00,
2013-02-18 09:54:00,36.3,19.5,30.42,SSW,198,1.0,6.0,50,0.00,,---,0.00,VWS V14.01,2013-02-18 14:54:00,
2013-02-18 09:59:00,36.7,19.4,30.42,SSE,162,5.0,6.0,49,0.00,,---,0.00,VWS V14.01,2013-02-18 14:59:00,
2013-02-18 10:04:00,36.8,19.5,30.42,SSE,161,2.0,5.0,49,0.00,,---,0.00,VWS V14.01,2013-02-18 15:04:00,
2013-02-18 10:09:00,37.3,19.4,30.41,SE,127,3.0,5.0,48,0.00,,---,0.00,VWS V14.01,2013-02-18 15:09:00,
2013-02-18 10:14:00,37.4,19.5,30.41,SW,232,7.0,8.0,48,0.00,,---,0.00,VWS V14.01,2013-02-18 15:14:00,
2013-02-18 10:19:00,37.3,20.4,30.41,SSW,208,4.0,10.0,50,0.00,,---,0.00,VWS V14.01,2013-02-18 15:19:00,
2013-02-18 10:24:00,37.5,19.1,30.41,SW,219,6.0,11.0,47,0.00,,---,0.00,VWS V14.01,2013-02-18 15:24:00,
2013-02-18 10:29:00,37.6,20.2,30.41,SSW,193,2.0,11.0,49,0.00,,---,0.00,VWS V14.01,2013-02-18 15:29:00,
2013-02-18 10:34:00,37.9,19.5,30.41,SSW,210,4.0,8.0,47,0.00,,---,0.00,VWS V14.01,2013-02-18 15:34:00,
2013-02-18 10:39:00,38.3,19.9,30.41,WSW,238,3.0,8.0,47,0.00,,---,0.00,VWS V14.01,2013-02-18 15:39:00,
2013-02-18 10:44:00,38.8,20.8,30.41,South,172,2.0,8.0,48,0.00,,---,0.00,VWS V14.01,2013-02-18 15:44:00,
2013-02-18 10:49:00,39.3,20.3,30.41,SSW,195,6.0,9.0,46,0.00,,---,0.00,VWS V14.01,2013-02-18 15:49:00,
2013-02-18 10:54:00,39.5,20.5,30.41,South,184,4.0,9.0,46,0.00,,---,0.00,VWS V14.01,2013-02-18 15:54:00,
2013-02-18 10:59:00,39.9,21.3,30.41,SSE,166,3.0,9.0,47,0.00,,---,0.00,VWS V14.01,2013-02-18 15:59:00,
2013-02-18 11:04:00,40.2,20.6,30.40,SW,230,3.0,8.0,45,0.00,,---,0.00,VWS V14.01,2013-02-18 16:04:00,
2013-02-18 11:09:00,40.5,20.9,30.40,SSE,156,3.0,9.0,45,0.00,,---,0.00,VWS V14.01,2013-02-18 16:09:00,
2013-02-18 11:14:00,40.7,21.0,30.40,SE,126,1.0,9.0,45,0.01,,---,0.01,VWS V14.01,2013-02-18 16:14:00,
2013-02-18 11:19:00,41.3,22.1,30.40,SSW,194,3.0,9.0,46,0.02,,---,0.02,VWS V14.01,2013-02-18 16:19:00,
2013-02-18 11:24:00,41.7,22.5,30.40,SSE,153,4.0,9.0,46,0.03,,---,0.03,VWS V14.01,2013-02-18 16:24:00,
2013-02-18 11:29:00,42.3,22.5,30.39,SE,146,3.0,9.0,45,0.03,,---,0.03,VWS V14.01,2013-02-18 16:29:00,
2013-02-18 11:34:00,42.4,23.1,30.39,South,180,5.0,7.0,46,0.04,,---,0.04,VWS V14.01,2013-02-18 16:34:00,
2013-02-18 11:39:00,42.1,22.8,30.39,SSW,197,4.0,10.0,46,0.05,,---,0.05,VWS V14.01,2013-02-18 16:39:00,
2013-02-18 11:44:00,42.4,24.1,30.39,South,174,4.0,10.0,48,0.06,,---,0.06,VWS V14.01,2013-02-18 16:44:00,
2013-02-18 11:49:00,42.7,24.4,30.38,SW,232,8.0,10.0,48,0.06,,---,0.06,VWS V14.01,2013-02-18 16:49:00,
2013-02-18 11:55:00,42.6,24.3,30.39,SSW,193,5.0,10.0,48,0.07,,---,0.07,VWS V14.01,2013-02-18 16:55:00,
2013-02-18 12:00:00,42.5,22.7,30.38,South,188,3.0,10.0,45,0.08,,---,0.08,VWS V14.01,2013-02-18 17:00:00,
2013-02-18 12:05:00,42.1,24.3,30.38,East,81,2.0,12.0,49,0.08,,---,0.08,VWS V14.01,2013-02-18 17:05:00,
2013-02-18 12:10:00,41.7,22.5,30.38,East,96,4.0,12.0,46,0.08,,---,0.08,VWS V14.01,2013-02-18 17:10:00,
2013-02-18 12:15:00,41.5,22.3,30.37,East,85,4.0,12.0,46,0.09,,---,0.09,VWS V14.01,2013-02-18 17:15:00,
2013-02-18 12:20:00,41.5,21.8,30.37,ENE,67,3.0,12.0,45,0.09,,---,0.09,VWS V14.01,2013-02-18 17:20:00,
2013-02-18 12:25:00,42.4,25.1,30.37,SE,146,3.0,12.0,50,0.09,,---,0.09,VWS V14.01,2013-02-18 17:25:00,
2013-02-18 12:30:00,42.7,25.4,30.36,South,184,8.0,12.0,50,0.09,,---,0.09,VWS V14.01,2013-02-18 17:30:00,
2013-02-18 12:35:00,43.6,25.7,30.36,ESE,108,9.0,9.0,49,0.06,,---,0.09,VWS V14.01,2013-02-18 17:35:00,
2013-02-18 12:40:00,43.3,24.9,30.36,SSE,167,3.0,11.0,48,0.06,,---,0.09,VWS V14.01,2013-02-18 17:40:00,
2013-02-18 12:45:00,44.3,25.4,30.36,SSW,198,4.0,11.0,47,0.06,,---,0.09,VWS V14.01,2013-02-18 17:45:00,
2013-02-18 12:50:00,44.5,27.0,30.35,SW,235,8.0,12.0,50,0.06,,---,0.09,VWS V14.01,2013-02-18 17:50:00,
2013-02-18 12:55:00,44.4,26.0,30.35,WSW,253,8.0,12.0,48,0.06,,---,0.09,VWS V14.01,2013-02-18 17:55:00,
2013-02-18 13:00:00,44.1,24.7,30.34,ENE,74,5.0,5.0,46,0.01,,---,0.09,VWS V14.01,2013-02-18 18:00:00,
2013-02-18 13:05:00,44.2,27.2,30.34,South,174,4.0,10.0,51,0.01,,---,0.09,VWS V14.01,2013-02-18 18:05:00,
2013-02-18 13:10:00,43.2,23.8,30.34,SE,124,5.0,10.0,46,0.01,,---,0.09,VWS V14.01,2013-02-18 18:10:00,
2013-02-18 13:15:00,42.9,24.6,30.33,East,85,4.0,10.0,48,0.01,,---,0.09,VWS V14.01,2013-02-18 18:15:00,
2013-02-18 13:20:00,43.4,25.5,30.33,SE,131,4.0,10.0,49,0.01,,---,0.09,VWS V14.01,2013-02-18 18:20:00,
2013-02-18 13:25:00,43.7,25.3,30.33,ESE,107,5.0,10.0,48,0.01,,---,0.09,VWS V14.01,2013-02-18 18:25:00,
2013-02-18 13:30:00,44.1,25.2,30.32,SE,130,3.0,4.0,47,0.00,,---,0.09,VWS V14.01,2013-02-18 18:30:00,
2013-02-18 13:35:00,44.8,27.8,30.32,SE,124,3.0,9.0,51,0.00,,---,0.09,VWS V14.01,2013-02-18 18:35:00,
2013-02-18 13:40:00,45.1,26.6,30.31,East,85,6.0,9.0,48,0.00,,---,0.09,VWS V14.01,2013-02-18 18:40:00,
2013-02-18 13:45:00,44.9,26.4,30.31,ESE,103,4.0,9.0,48,0.00,,---,0.09,VWS V14.01,2013-02-18 18:45:00,
2013-02-18 13:50:00,45.0,27.0,30.31,East,93,5.0,9.0,49,0.00,,---,0.09,VWS V14.01,2013-02-18 18:50:00,
2013-02-18 13:55:00,44.9,26.4,30.31,ESE,120,6.0,13.0,48,0.00,,---,0.09,VWS V14.01,2013-02-18 18:55:00,
2013-02-18 14:00:00,44.7,27.2,30.30,East,86,7.0,7.0,50,0.00,,---,0.09,VWS V14.01,2013-02-18 19:00:00,
2013-02-18 14:05:00,44.5,26.5,30.30,ESE,118,4.0,10.0,49,0.00,,---,0.09,VWS V14.01,2013-02-18 19:05:00,
2013-02-18 14:11:00,44.6,27.1,30.30,SE,124,5.0,10.0,50,0.00,,---,0.09,VWS V14.01,2013-02-18 19:11:00,
2013-02-18 14:16:00,44.6,27.6,30.29,ENE,72,4.0,10.0,51,0.00,,---,0.09,VWS V14.01,2013-02-18 19:16:00,
2013-02-18 14:21:00,44.6,27.6,30.29,East,91,8.0,10.0,51,0.00,,---,0.09,VWS V14.01,2013-02-18 19:21:00,
2013-02-18 14:26:00,43.9,26.5,30.29,ESE,122,9.0,10.0,50,0.00,,---,0.09,VWS V14.01,2013-02-18 19:26:00,
2013-02-18 14:31:00,44.0,26.6,30.29,NE,44,4.0,9.0,50,0.00,,---,0.09,VWS V14.01,2013-02-18 19:31:00,
2013-02-18 14:36:00,44.2,27.2,30.28,ESE,116,10.0,12.0,51,0.00,,---,0.09,VWS V14.01,2013-02-18 19:36:00,
2013-02-18 14:41:00,43.8,26.9,30.28,SE,124,7.0,13.0,51,0.00,,---,0.09,VWS V14.01,2013-02-18 19:41:00,
2013-02-18 14:46:00,43.7,26.8,30.28,ESE,119,6.0,13.0,51,0.00,,---,0.09,VWS V14.01,2013-02-18 19:46:00,
2013-02-18 14:51:00,43.8,26.9,30.28,ESE,114,8.0,13.0,51,0.00,,---,0.09,VWS V14.01,2013-02-18 19:51:00,
2013-02-18 14:56:00,44.0,27.5,30.28,SE,134,5.0,13.0,52,0.00,,---,0.09,VWS V14.01,2013-02-18 19:56:00,
2013-02-18 15:01:00,44.2,27.7,30.28,East,96,2.0,9.0,52,0.00,,---,0.09,VWS V14.01,2013-02-18 20:01:00,
2013-02-18 15:06:00,44.3,27.8,30.28,ESE,123,4.0,10.0,52,0.00,,---,0.09,VWS V14.01,2013-02-18 20:06:00,
2013-02-18 15:11:00,44.7,28.6,30.27,ESE,113,8.0,12.0,53,0.00,,---,0.09,VWS V14.01,2013-02-18 20:11:00,
2013-02-18 15:16:00,44.7,27.2,30.28,East,93,5.0,12.0,50,0.00,,---,0.09,VWS V14.01,2013-02-18 20:16:00,
2013-02-18 15:21:00,45.0,28.0,30.27,SE,131,9.0,12.0,51,0.00,,---,0.09,VWS V14.01,2013-02-18 20:21:00,
2013-02-18 15:26:00,45.1,27.6,30.27,East,86,6.0,12.0,50,0.00,,---,0.09,VWS V14.01,2013-02-18 20:26:00,
2013-02-18 15:31:00,45.2,28.2,30.27,SE,139,2.0,4.0,51,0.00,,---,0.09,VWS V14.01,2013-02-18 20:31:00,
2013-02-18 15:36:00,45.4,28.4,30.27,ESE,122,7.0,10.0,51,0.00,,---,0.09,VWS V14.01,2013-02-18 20:36:00,
2013-02-18 15:41:00,45.5,28.9,30.27,SE,129,5.0,11.0,52,0.00,,---,0.09,VWS V14.01,2013-02-18 20:41:00,
2013-02-18 15:46:00,45.6,28.5,30.26,East,89,3.0,11.0,51,0.00,,---,0.09,VWS V14.01,2013-02-18 20:46:00,
2013-02-18 15:51:00,45.6,28.0,30.27,East,79,5.0,11.0,50,0.00,,---,0.09,VWS V14.01,2013-02-18 20:51:00,
2013-02-18 15:56:00,46.3,31.0,30.26,SE,124,7.0,14.0,55,0.00,,---,0.09,VWS V14.01,2013-02-18 20:56:00,
2013-02-18 16:01:00,46.7,30.5,30.26,East,89,4.0,7.0,53,0.00,,---,0.09,VWS V14.01,2013-02-18 21:01:00,
2013-02-18 16:06:00,47.0,31.2,30.26,SE,140,5.0,9.0,54,0.00,,---,0.09,VWS V14.01,2013-02-18 21:06:00,
2013-02-18 16:11:00,47.2,31.4,30.26,SE,142,4.0,14.0,54,0.00,,---,0.09,VWS V14.01,2013-02-18 21:11:00,
2013-02-18 16:16:00,47.4,30.7,30.26,SE,142,6.0,14.0,52,0.00,,---,0.09,VWS V14.01,2013-02-18 21:16:00,
2013-02-18 16:21:00,47.4,31.1,30.25,ESE,118,11.0,14.0,53,0.00,,---,0.09,VWS V14.01,2013-02-18 21:21:00,
2013-02-18 16:26:00,47.6,31.8,30.25,ESE,118,4.0,14.0,54,0.00,,---,0.09,VWS V14.01,2013-02-18 21:26:00,
2013-02-18 16:31:00,47.6,30.9,30.25,SE,146,6.0,7.0,52,0.00,,---,0.09,VWS V14.01,2013-02-18 21:31:00,
2013-02-18 16:36:00,47.7,31.4,30.25,SE,131,7.0,9.0,53,0.00,,---,0.09,VWS V14.01,2013-02-18 21:36:00,
2013-02-18 16:41:00,47.9,31.1,30.25,ESE,108,14.0,14.0,52,0.00,,---,0.09,VWS V14.01,2013-02-18 21:41:00,
2013-02-18 16:46:00,47.6,30.4,30.25,SE,134,4.0,16.0,51,0.00,,---,0.09,VWS V14.01,2013-02-18 21:46:00,
2013-02-18 16:51:00,47.6,30.4,30.25,SSE,148,4.0,16.0,51,0.00,,---,0.09,VWS V14.01,2013-02-18 21:51:00,
2013-02-18 16:56:00,47.6,30.9,30.25,ESE,118,7.0,16.0,52,0.00,,---,0.09,VWS V14.01,2013-02-18 21:56:00,
2013-02-18 17:01:00,47.6,30.4,30.25,SE,124,4.0,8.0,51,0.00,,---,0.09,VWS V14.01,2013-02-18 22:01:00,
2013-02-18 17:06:00,47.3,30.1,30.25,SE,135,4.0,11.0,51,0.00,,---,0.09,VWS V14.01,2013-02-18 22:06:00,
2013-02-18 17:12:00,47.2,30.5,30.24,South,172,1.0,11.0,52,0.00,,---,0.09,VWS V14.01,2013-02-18 22:12:00,
2013-02-18 17:17:00,47.0,29.8,30.25,SE,143,7.0,11.0,51,0.00,,---,0.09,VWS V14.01,2013-02-18 22:17:00,
2013-02-18 17:22:00,46.8,29.6,30.24,SE,144,3.0,13.0,51,0.00,,---,0.09,VWS V14.01,2013-02-18 22:22:00,
2013-02-18 17:27:00,46.7,30.5,30.24,South,180,5.0,13.0,53,0.00,,---,0.09,VWS V14.01,2013-02-18 22:27:00,
2013-02-18 17:32:00,46.6,29.9,30.24,ESE,119,5.0,7.0,52,0.00,,---,0.09,VWS V14.01,2013-02-18 22:32:00,
2013-02-18 17:37:00,46.3,30.1,30.23,SE,129,4.0,10.0,53,0.00,,---,0.09,VWS V14.01,2013-02-18 22:37:00,
2013-02-18 17:42:00,45.9,29.8,30.23,ESE,119,4.0,10.0,53,0.00,,---,0.09,VWS V14.01,2013-02-18 22:42:00,
2013-02-18 17:47:00,45.3,30.1,30.23,SSE,148,4.0,10.0,55,0.00,,---,0.09,VWS V14.01,2013-02-18 22:47:00,
2013-02-18 17:52:00,44.9,29.7,30.23,SE,136,3.0,10.0,55,0.00,,---,0.09,VWS V14.01,2013-02-18 22:52:00,
2013-02-18 17:57:00,44.7,30.0,30.23,SE,129,4.0,10.0,56,0.00,,---,0.09,VWS V14.01,2013-02-18 22:57:00,
2013-02-18 18:02:00,44.5,29.8,30.23,SE,139,2.0,6.0,56,0.00,,---,0.09,VWS V14.01,2013-02-18 23:02:00,
2013-02-18 18:07:00,44.1,29.9,30.22,ESE,105,3.0,6.0,57,0.00,,---,0.09,VWS V14.01,2013-02-18 23:07:00,
2013-02-18 18:12:00,43.9,29.7,30.22,SE,127,4.0,7.0,57,0.00,,---,0.09,VWS V14.01,2013-02-18 23:12:00,
2013-02-18 18:17:00,43.7,29.5,30.22,East,99,4.0,8.0,57,0.00,,---,0.09,VWS V14.01,2013-02-18 23:17:00,
2013-02-18 18:22:00,43.5,29.7,30.22,SE,127,4.0,8.0,58,0.00,,---,0.09,VWS V14.01,2013-02-18 23:22:00,
2013-02-18 18:27:00,43.3,29.5,30.22,SE,143,3.0,8.0,58,0.00,,---,0.09,VWS V14.01,2013-02-18 23:27:00,
2013-02-18 18:32:00,43.2,29.4,30.22,SSE,148,4.0,5.0,58,0.00,,---,0.09,VWS V14.01,2013-02-18 23:32:00,
2013-02-18 18:37:00,43.1,29.3,30.21,ESE,115,4.0,5.0,58,0.00,,---,0.09,VWS V14.01,2013-02-18 23:37:00,
2013-02-18 18:42:00,42.8,29.5,30.21,SE,139,3.0,5.0,59,0.00,,---,0.09,VWS V14.01,2013-02-18 23:42:00,
2013-02-18 18:48:00,42.4,29.5,30.21,SE,132,2.0,5.0,60,0.00,,---,0.09,VWS V14.01,2013-02-18 23:48:00,
2013-02-18 18:53:00,42.6,29.3,30.21,ESE,117,4.0,9.0,59,0.00,,---,0.09,VWS V14.01,2013-02-18 23:53:00,
2013-02-18 18:58:00,42.8,29.1,30.21,ESE,118,6.0,10.0,58,0.00,,---,0.09,VWS V14.01,2013-02-18 23:58:00,
2013-02-18 19:03:00,42.7,28.5,30.20,ESE,110,8.0,12.0,57,0.00,,---,0.09,VWS V14.01,2013-02-19 00:03:00,
2013-02-18 19:08:00,42.6,28.0,30.20,SE,131,8.0,13.0,56,0.00,,---,0.09,VWS V14.01,2013-02-19 00:08:00,
2013-02-18 19:13:00,42.5,27.9,30.20,ESE,122,7.0,14.0,56,0.00,,---,0.09,VWS V14.01,2013-02-19 00:13:00,
2013-02-18 19:18:00,42.2,27.2,30.20,SE,131,4.0,14.0,55,0.00,,---,0.09,VWS V14.01,2013-02-19 00:18:00,
2013-02-18 19:23:00,42.3,26.9,30.20,SE,129,7.0,16.0,54,0.00,,---,0.09,VWS V14.01,2013-02-19 00:23:00,
2013-02-18 19:28:00,42.1,26.7,30.19,SE,132,7.0,16.0,54,0.00,,---,0.09,VWS V14.01,2013-02-19 00:28:00,
2013-02-18 19:33:00,41.8,26.4,30.19,SSE,162,6.0,12.0,54,0.00,,---,0.09,VWS V14.01,2013-02-19 00:33:00,
2013-02-18 19:38:00,41.6,25.8,30.19,SE,135,6.0,12.0,53,0.00,,---,0.09,VWS V14.01,2013-02-19 00:38:00,
2013-02-18 19:43:00,41.4,25.6,30.19,ESE,113,12.0,16.0,53,0.00,,---,0.09,VWS V14.01,2013-02-19 00:43:00,
2013-02-18 19:48:00,41.2,25.4,30.19,SE,136,8.0,16.0,53,0.00,,---,0.09,VWS V14.01,2013-02-19 00:48:00,
2013-02-18 19:53:00,41.1,25.3,30.19,ENE,69,16.0,17.0,53,0.00,,---,0.09,VWS V14.01,2013-02-19 00:53:00,
2013-02-18 19:58:00,40.9,25.1,30.18,SE,128,11.0,17.0,53,0.00,,---,0.09,VWS V14.01,2013-02-19 00:58:00,
2013-02-18 20:03:00,40.7,25.4,30.18,ESE,115,9.0,12.0,54,0.00,,---,0.09,VWS V14.01,2013-02-19 01:03:00,
2013-02-18 20:08:00,40.4,25.1,30.18,ESE,118,14.0,15.0,54,0.00,,---,0.09,VWS V14.01,2013-02-19 01:08:00,
2013-02-18 20:13:00,40.3,25.0,30.18,ESE,109,8.0,15.0,54,0.00,,---,0.09,VWS V14.01,2013-02-19 01:13:00,
2013-02-18 20:18:00,40.1,24.8,30.18,ESE,105,12.0,16.0,54,0.00,,---,0.09,VWS V14.01,2013-02-19 01:18:00,
2013-02-18 20:23:00,40.1,24.8,30.17,SE,129,11.0,16.0,54,0.00,,---,0.09,VWS V14.01,2013-02-19 01:23:00,
2013-02-18 20:28:00,39.9,25.1,30.17,SE,127,13.0,18.0,55,0.00,,---,0.09,VWS V14.01,2013-02-19 01:28:00,
2013-02-18 20:33:00,39.6,24.8,30.17,SE,127,11.0,13.0,55,0.00,,---,0.09,VWS V14.01,2013-02-19 01:33:00,
2013-02-18 20:38:00,39.4,25.0,30.17,ESE,115,8.0,15.0,56,0.00,,---,0.09,VWS V14.01,2013-02-19 01:38:00,
2013-02-18 20:43:00,39.3,24.9,30.17,ESE,119,9.0,15.0,56,0.00,,---,0.09,VWS V14.01,2013-02-19 01:43:00,
2013-02-18 20:48:00,39.2,24.8,30.17,ESE,113,8.0,15.0,56,0.00,,---,0.09,VWS V14.01,2013-02-19 01:48:00,
2013-02-18 20:53:00,39.1,24.7,30.17,ESE,113,12.0,15.0,56,0.00,,---,0.09,VWS V14.01,2013-02-19 01:53:00,
2013-02-18 20:58:00,39.1,24.7,30.17,SE,131,9.0,17.0,56,0.00,,---,0.09,VWS V14.01,2013-02-19 01:58:00,
2013-02-18 21:03:00,39.0,25.1,30.16,ESE,113,10.0,15.0,57,0.00,,---,0.09,VWS V14.01,2013-02-19 02:03:00,
2013-02-18 21:08:00,38.8,24.9,30.17,SE,125,19.0,20.0,57,0.00,,---,0.09,VWS V14.01,2013-02-19 02:08:00,
2013-02-18 21:13:00,38.9,24.6,30.17,ESE,115,8.0,20.0,56,0.00,,---,0.09,VWS V14.01,2013-02-19 02:13:00,
2013-02-18 21:18:00,38.7,24.8,30.17,SSE,150,4.0,20.0,57,0.00,,---,0.09,VWS V14.01,2013-02-19 02:18:00,
2013-02-18 21:24:00,38.6,24.7,30.16,SE,125,8.0,20.0,57,0.00,,---,0.09,VWS V14.01,2013-02-19 02:24:00,
2013-02-18 21:29:00,38.6,24.7,30.16,ESE,110,7.0,20.0,57,0.00,,---,0.09,VWS V14.01,2013-02-19 02:29:00,
2013-02-18 21:34:00,38.4,24.5,30.16,ESE,107,11.0,13.0,57,0.00,,---,0.09,VWS V14.01,2013-02-19 02:34:00,
2013-02-18 21:39:00,38.3,24.4,30.16,SE,126,10.0,18.0,57,0.00,,---,0.09,VWS V14.01,2013-02-19 02:39:00,
2013-02-18 21:44:00,38.2,24.7,30.16,SE,129,8.0,18.0,58,0.00,,---,0.09,VWS V14.01,2013-02-19 02:44:00,
2013-02-18 21:49:00,38.0,24.5,30.16,East,79,8.0,18.0,58,0.00,,---,0.09,VWS V14.01,2013-02-19 02:49:00,
2013-02-18 21:54:00,37.8,24.4,30.16,SE,124,12.0,18.0,58,0.00,,---,0.09,VWS V14.01,2013-02-19 02:54:00,
2013-02-18 21:59:00,37.6,24.6,30.15,ESE,103,8.0,18.0,59,0.00,,---,0.09,VWS V14.01,2013-02-19 02:59:00,
2013-02-18 22:04:00,37.5,24.5,30.15,ESE,105,10.0,16.0,59,0.00,,---,0.09,VWS V14.01,2013-02-19 03:04:00,
2013-02-18 22:09:00,37.5,24.5,30.14,ESE,115,10.0,17.0,59,0.00,,---,0.09,VWS V14.01,2013-02-19 03:09:00,
2013-02-18 22:14:00,37.4,24.4,30.14,SE,143,7.0,17.0,59,0.00,,---,0.09,VWS V14.01,2013-02-19 03:14:00,
2013-02-18 22:19:00,37.2,24.6,30.14,ESE,119,12.0,17.0,60,0.00,,---,0.09,VWS V14.01,2013-02-19 03:19:00,
2013-02-18 22:24:00,37.0,24.4,30.13,ESE,122,10.0,17.0,60,0.00,,---,0.09,VWS V14.01,2013-02-19 03:24:00,
2013-02-18 22:29:00,37.1,24.5,30.13,East,86,8.0,17.0,60,0.00,,---,0.09,VWS V14.01,2013-02-19 03:29:00,
2013-02-18 22:34:00,36.9,24.7,30.12,ESE,120,10.0,15.0,61,0.00,,---,0.09,VWS V14.01,2013-02-19 03:34:00,
2013-02-18 22:39:00,37.1,24.5,30.12,ESE,120,9.0,19.0,60,0.00,,---,0.09,VWS V14.01,2013-02-19 03:39:00,
2013-02-18 22:44:00,37.2,24.6,30.12,SE,127,13.0,20.0,60,0.00,,---,0.09,VWS V14.01,2013-02-19 03:44:00,
2013-02-18 22:49:00,37.0,24.4,30.11,East,96,10.0,20.0,60,0.00,,---,0.09,VWS V14.01,2013-02-19 03:49:00,
2013-02-18 22:54:00,36.7,24.5,30.11,East,79,8.0,20.0,61,0.00,,---,0.09,VWS V14.01,2013-02-19 03:54:00,
2013-02-18 22:59:00,36.5,24.3,30.11,ESE,102,5.0,20.0,61,0.00,,---,0.09,VWS V14.01,2013-02-19 03:59:00,
2013-02-18 23:04:00,36.4,24.2,30.10,East,86,6.0,13.0,61,0.00,,---,0.09,VWS V14.01,2013-02-19 04:04:00,
2013-02-18 23:09:00,36.1,24.4,30.10,ESE,115,12.0,14.0,62,0.00,,---,0.09,VWS V14.01,2013-02-19 04:09:00,
2013-02-18 23:15:00,36.0,24.3,30.09,East,101,6.0,14.0,62,0.00,,---,0.09,VWS V14.01,2013-02-19 04:15:00,
2013-02-18 23:20:00,35.8,24.1,30.09,SE,141,5.0,14.0,62,0.00,,---,0.09,VWS V14.01,2013-02-19 04:20:00,
2013-02-18 23:25:00,35.6,24.3,30.09,ESE,103,11.0,14.0,63,0.00,,---,0.09,VWS V14.01,2013-02-19 04:25:00,
2013-02-18 23:30:00,35.5,24.2,30.09,ESE,111,11.0,12.0,63,0.00,,---,0.09,VWS V14.01,2013-02-19 04:30:00,
2013-02-18 23:35:00,35.5,24.2,30.08,ESE,113,9.0,17.0,63,0.00,,---,0.09,VWS V14.01,2013-02-19 04:35:00,
2013-02-18 23:40:00,35.5,24.2,30.09,ESE,117,5.0,17.0,63,0.00,,---,0.09,VWS V14.01,2013-02-19 04:40:00,
2013-02-18 23:45:00,35.4,24.5,30.09,ESE,112,12.0,17.0,64,0.00,,---,0.09,VWS V14.01,2013-02-19 04:45:00,
2013-02-18 23:50:00,35.6,24.3,30.09,ESE,120,11.0,17.0,63,0.00,,---,0.09,VWS V14.01,2013-02-19 04:50:00,
2013-02-18 23:55:00,35.7,24.7,30.09,East,96,7.0,17.0,64,0.00,,---,0.09,VWS V14.01,2013-02-19 04:55:00,